Cherry Point, NC

3:45 AM EST on February 12, 2016 (GMT -0500)
Cherry Point Marine Corps Air Station

Weather History for KNKT - October, 2013

Change the Weather History Date:

Tuesday, October 22, 2013

  Actual Average Record
Temperature  
Mean Temperature 62 °F -  
Max Temperature 68 °F 70 °F 82 °F (2001)
Min Temperature 57 °F 50 °F 42 °F (2012)
Degree Days  
Heating Degree Days 2    
Growing Degree Days 12 (Base 50)    
Moisture  
Dew Point 55 °F    
Average Humidity 77    
Maximum Humidity 93    
Minimum Humidity 65    
Precipitation  
Precipitation 0.01 in - - ()
Sea Level Pressure  
Sea Level Pressure 29.93 in    
Wind  
Wind Speed 4 mph (WNW)    
Max Wind Speed 7 mph    
Max Gust Speed -    
Visibility 10 miles    
Events Rain    
Averages and records for this station are not official NWS values.
T = Trace of Precipitation, MM = Missing Value Source: NWS Daily Summary

Daily Weather History Graph

Daily Weather History Graph

Search for Another Location

Airport or City:

Trip Planner

Search our weather history database for the weather conditions in past years. The results will help you decide how hot, cold, wet, or windy it might be!

Date:

Astronomy

Oct. 22, 2013 Rise Set
Actual Time 7:19 AM EDT 6:23 PM EDT
Civil Twilight 6:53 AM EDT 6:49 PM EDT
Nautical Twilight 6:24 AM EDT 7:19 PM EDT
Astronomical Twilight 5:54 AM EDT 7:48 PM EDT
Moon 9:08 PM EDT (10/22) 10:39 AM EDT (10/22)
Length of Visible Light 11h 55m
Length of Day
11h 04m
Waning Gibbous, 87% of the Moon is Illuminated
Oct 22
Waning Gibbous
Oct 26
Last Quarter
Nov 3
New
Nov 10
First Quarter
Nov 17
Full

Hourly Weather History & Observations

Time (EDT) Temp. Dew Point Humidity Pressure Visibility Wind Dir Wind Speed Gust Speed Precip Events Conditions
12:54 AM 63.0 °F 55.0 °F 75% 30.00 in 10.0 mi NNW 4.6 mph - N/A   Mostly Cloudy
1:54 AM 62.1 °F 55.0 °F 78% 29.99 in 10.0 mi NW 5.8 mph - N/A   Clear
2:54 AM 61.0 °F 54.0 °F 78% 29.98 in 10.0 mi NNW 6.9 mph - N/A   Scattered Clouds
3:54 AM 61.0 °F 52.0 °F 72% 29.96 in 10.0 mi NNW 5.8 mph - N/A   Clear
4:54 AM 57.9 °F 54.0 °F 87% 29.97 in 10.0 mi Calm Calm - N/A   Clear
5:54 AM 59.0 °F 52.0 °F 78% 29.96 in 10.0 mi WNW 4.6 mph - N/A   Clear
6:54 AM 59.0 °F 50.0 °F 72% 29.96 in 10.0 mi NW 4.6 mph - N/A   Mostly Cloudy
7:54 AM 59.0 °F 48.9 °F 69% 29.96 in 10.0 mi NW 5.8 mph - N/A   Mostly Cloudy
8:54 AM 60.1 °F 48.9 °F 67% 29.99 in 10.0 mi WNW 4.6 mph - N/A   Mostly Cloudy
9:54 AM 60.1 °F 52.0 °F 75% 29.97 in 10.0 mi Calm Calm - N/A   Mostly Cloudy
12:54 PM 64.9 °F 53.1 °F 65% 29.93 in 10.0 mi NW 3.5 mph - N/A   Mostly Cloudy
1:54 PM 64.9 °F 55.0 °F 70% 29.90 in 10.0 mi Calm Calm - N/A   Mostly Cloudy
2:54 PM 66.9 °F 55.0 °F 66% 29.90 in 10.0 mi West 4.6 mph - N/A   Overcast
4:54 PM 68.0 °F 60.1 °F 76% 29.88 in 10.0 mi Calm Calm - 0.00 in   Overcast
5:55 PM 63.0 °F 57.9 °F 84% 29.88 in 10.0 mi South 4.6 mph - 0.00 in   Overcast
6:54 PM 63.0 °F 57.9 °F 84% 29.89 in 10.0 mi SSW 6.9 mph - N/A   Overcast
8:54 PM 61.0 °F 57.9 °F 90% 29.88 in 10.0 mi SW 3.5 mph - 0.00 in Rain Light Rain
10:54 PM 61.0 °F 59.0 °F 93% 29.85 in 10.0 mi SSE 4.6 mph - 0.01 in Rain Light Rain
11:54 PM 61.0 °F 57.9 °F 90% 29.85 in 10.0 mi SSW 4.6 mph - 0.00 in   Overcast